www.pogodaiklimat.ru

Погода и климат >> Архив погоды >> Россия >> Дагестан >> Изберг


ПОГОДА в Изберге

  • Прогноз погоды в Изберге
  • Монитор погоды в Изберге
  • Климат города

АРХИВ ПОГОДЫ в Изберге

Время (UTC), дата Ветер
(напр.,м/с)
 
Видим.   Явления Облачность Т
(С)
Тd
(С)
f
(%)
Тe
(С)
Тes
(С)
Комфортность P
(гПа)
Po
(гПа)
Тmin
(С)
Tmax
(С)
R
(мм)
R24
(мм)
S
(см)
06 17.05 СВ 1 50 км 10/10 600 м
[Cb calv]
+16.0 +13.4 85 +17 +17 1018.0 1020.1
09 17.05 В 3 20 км 9/8 600 м
[Cb calv Ac trans]
+17.3 +13.7 79 +17 +19 1017.9 1020.0
12 17.05 В 2 50 км 10/6 600 м
[Cb calv Ac trans]
+16.8 +13.4 80 +17 +19 1018.0 1020.1
15 17.05 В 3 50 км 9/3 600 м
[Cu hum Ac und]
+15.7 +13.8 88 +15 +15 1018.6 1020.8 +18.0
18 17.05 ЮВ 2 20 км 8/3 600 м
[Cu hum Ac und]
+14.4 +12.1 86 +14 +14 1019.0 1021.2
21 17.05 Ю 3 20 км 3/3 600 м
[Cu hum]
+12.8 +10.9 88 +11 +11 1018.4 1020.6
00 18.05 ЮЗ 3 20 км 4/1 600 м
[Cu hum Ac lent]
+11.7 +9.3 85 +10 +10 1016.8 1019.0
03 18.05 ЮВ 2 50 км 8/3 600 м
[Cu hum Ac lent Ci fib]
+14.8 +11.1 78 +15 +15 1016.9 1019.1 +11.1
06 18.05 ЮВ 8-10
{11}
20 км 4/3 600 м
[Cu hum Ac lent Ci fib]
+17.7 +12.6 72 +17 +18 1016.7 1018.8
09 18.05 ЮВ 11-14
{14}
20 км 9/1 600 м
[Cu hum Ac lent Cc]
+18.1 +12.1 68 +17 +17 1015.7 1017.8
12 18.05 ЮВ 7-11
{14}
20 км 10/1 600 м
[Cu hum Ac lent Cs]
+17.4 +12.7 74 +16 +18 1014.6 1016.8
15 18.05 ЮВ 4 20 км 10/0
[Ac lent Cs]
+15.8 +12.5 81 +15 +15 1013.4 1015.5 +18.2
18 18.05 СЗ 1 20 км 8/0
[Ci fib]
+14.2 +11.8 85 +15 +15 1014.0 1016.2
21 18.05 СЗ 2 20 км 10/0
[Ac trans Ci fib]
+13.9 +12.1 89 +13 +13 1012.8 1014.9
00 19.05 СЗ 2 20 км 10/0
[Ac und Ci fib]
+13.3 +11.7 90 +13 +13 1010.8 1013.0
03 19.05 СЗ 2 20 км 10/0
[Ac trans Cs]
+14.7 +11.7 82 +14 +15 1009.9 1012.1 +12.6
06 19.05 ЮВ 5 20 км 10/3 600 м
[Cu hum Ac cast Cs]
+16.8 +13.6 81 +16 +18 1011.5 1013.6
09 19.05 СВ 2 20 км 9/1 600 м
[Cu med, cong Ac trans Ci fib]
+18.6 +13.6 73 +20 +29 1010.9 1013.1
12 19.05 С 3 20 км 10/6 600 м
[Cb calv Ac As]
+18.1 +13.6 75 +18 +19 1011.0 1013.1
15 19.05 С 3 20 км 10/10 600 м
[Cb calv]
+18.4 +13.5 73 +19 +19 1010.8 1013.0 +18.8
18 19.05 Ю 2 20 км 10/10 600 м
[Cb calv]
+17.2 +14.2 83 +18 +18 1010.2 1012.4
21 19.05 СЗ 2 20 км в посл. час ливневой дождь 10/10 600 м
[Cb calv]
+17.1 +14.2 83 +17 +17 1009.7 1011.9
00 20.05 ЮВ 1 20 км {ливн. осадки} 10/10 600 м
[Cb calv]
+16.6 +14.7 89 +17 +17 1007.4 1009.5
03 20.05 ЮВ 1 20 км 10/10 600 м
[Cb calv]
+16.6 +14.8 89 +17 +17 1006.4 1008.5 +15.9 0.3
06 20.05 С 5 20 км 10/6 600 м
[Cb calv Ac As]
+17.6 +14.8 84 +17 +18 1006.3 1008.4
09 20.05 С 5 20 км 10/10 600 м
[Cb calv]
+17.2 +14.7 85 +17 +17 1004.6 1006.7
12 20.05 З 3 20 км 10/10 600 м
[Cb calv]
+17.8 +14.5 81 +18 +18 1005.1 1007.2
15 20.05 В 3 50 км 10/8 600 м
[Cu hum Ac trans]
+16.5 +14.6 89 +16 +16 1005.4 1007.5 +18.6
18 20.05 СЗ 6-11
{11}
20 км 4/0
[Ac trans Ci fib]
+18.2 +13.7 75 +18 +18 1007.1 1009.2
21 20.05 СЗ 4
{12}
20 км 6/0
[Ci]
+16.2 +13.2 82 +15 +15 1005.5 1007.6
00 21.05 СЗ 2 20 км 8/8 600 м
[Cu hum]
+16.6 +12.8 78 +17 +17 1006.4 1008.5
03 21.05 С 3 20 км 10/8 600 м
[Cu hum Ac trans]
+16.5 +13.2 81 +16 +16 1007.7 1009.8 +15.6
06 21.05 СЗ 6 20 км 10/9 600 м
[Cb calv Ac trans]
+16.5 +13.2 81 +15 +16 1007.9 1010.0
09 21.05 С 3 20 км 10/6 600 м
[Cb calv Ac trans]
+17.1 +13.7 80 +17 +20 1007.2 1009.4
12 21.05 С 2 20 км 10/10 600 м
[Cb calv]
+17.0 +12.9 77 +17 +17 1006.6 1008.7
15 21.05 З 2 10 км слабый ливневой дождь 10/10 600 м
[Cb cap]
+16.1 +13.7 86 +16 +16 1007.3 1009.4 +18.4 2
18 21.05 СЗ 2 20 км в посл. час ливневой дождь 10/10 600 м
[Cb calv]
+16.8 +12.0 73 +17 +17 1008.4 1010.5
21 21.05 З 3 20 км 10/10 600 м
[Cb calv]
+18.0 +10.5 62 +18 +18 1008.5 1010.7
00 22.05 СЗ 3 20 км 8/3 600 м
[Cu hum Ac und]
+16.1 +10.7 70 +16 +16 1008.8 1010.9
03 22.05 СЗ 3 20 км 3/3 600 м
[Cu hum]
+16.8 +11.5 71 +17 +18 1009.6 1011.7 +13.6 2
06 22.05 СВ 3 20 км 3/3 600 м
[Cu hum]
+18.5 +13.4 72 +19 +27 1010.0 1012.1
09 22.05 В 4 50 км 1/1 600 м
[Cu med, cong]
+18.8 +13.3 70 +20 +31 1009.7 1011.8
12 22.05 ЮВ 6 50 км 3/1 600 м
[Cu hum Ci fib]
+19.3 +13.1 67 +20 +24 1009.0 1011.1
15 22.05 ЮВ 4 50 км 10/1 600 м
[Cu hum Ac lent Ci fib]
+17.0 +12.3 74 +17 +17 1008.8 1010.9 +20.0
18 22.05 Ю 1 20 км 1/0
[Ci fib]
+15.0 +11.4 79 +16 +16 1010.0 1012.1
21 22.05 ЮЗ 2 20 км ясно +12.6 +10.4 86 +12 +12 1009.3 1011.5
00 23.05 ЮЗ 2 20 км 3/0
[Ac trans Ci fib]
+12.5 +10.7 89 +12 +12 1007.9 1010.1
03 23.05 ЮВ 1 20 км 10/4 600 м
[Cu hum Ac trans Ci fib]
+14.1 +11.7 85 +14 +15 1007.6 1009.8 +12.2
06 23.05 С 6 20 км 10/10 600 м
[Cb calv]
+16.8 +14.1 84 +16 +16 1008.7 1010.9
09 23.05 С 9-11
{12}
20 км 6/3 600 м
[Cu med, cong Ac cast Ci fib]
+18.2 +14.3 78 +17 +19 1010.1 1012.2
12 23.05 С 6
{12}
20 км 8/3 600 м
[Cb calv Ci sp]
+17.7 +14.4 81 +17 +20 1011.1 1013.2
15 23.05 СЗ 4 20 км 9/6 600 м
[Cb calv Ac cast]
+16.9 +13.7 81 +16 +16 1012.1 1014.2 +18.8
18 23.05 З 2 20 км 9/9 600 м
[Cu hum]
+17.3 +13.5 78 +18 +18 1013.8 1016.0
21 23.05 СЗ 2 20 км 10/0
[Ac und Ci fib]
+16.3 +14.1 87 +16 +16 1014.3 1016.5
00 24.05 СЗ 2 20 км 10/0
[Ac und]
+16.3 +14.1 87 +16 +16 1013.9 1016.0
03 24.05 СЗ 2 20 км 10/4 600 м
[Cb calv Ac lent]
+16.7 +13.9 84 +17 +17 1014.4 1016.5 +15.9

 

Местоположение метеостанции Изберг (Дагестан, Россия): широта 42.53 долгота 47.92 высота над уровнем моря -16 м.

В архиве по умолчанию представлена погода в Изберге за последнюю неделю. Архивные данные за месяц целиком и за предыдущие месяцы, начиная с января 2011 года, Вы можете получить, выбрав интересующий диапазон дат из раскрывающегося списка и нажав кнопку "Ввод!".

Внимание! Время в таблицах - всемирное. Для получения местного времени необходимо прибавить поправку, которая в Изберге равна 3 ч.

Смотрите также архив погоды в соседних городах и на ближайших метеорологических станциях:

Погода в Сергокале (Дагестан, Россия) (22 км)
Погода в Дербенте (Дагестан, Россия) (60 км)
Погода в Махачкале (Дагестан, Россия) (65 км)
Погода в Куппе (Дагестан, Россия) (68 км)
Погода в Буйнакске (Дагестан, Россия) (73 км)
Погода в Гунибе (Дагестан, Россия) (79 км)
Погода в Кумухе (Дагестан, Россия) (80 км)
Погода в Касумкенте (Дагестан, Россия) (98 км)
Погода в Хунзахе (Дагестан, Россия) (100 км)
Погода в Ахты (Дагестан, Россия) (119 км)

Пояснения к столбцам:

Ветер - указаны скорость ветра в м/с - средняя за 10 мин, порывы в срок и между сроками (в фигурных скобках) и направление, откуда дует ветер: С - северный, СВ - северо-восточный, В - восточный, ЮВ - юго-восточный, Ю - южный, ЮЗ - юго-западный, З - западный, СЗ - северо-западный.
Видимость - горизонтальная дальность видимости в метрах или километрах. При видимости от 1 до 10 км при отсутствии осадков обычно наблюдается дымка, при ухудшении видимости до 1 км и менее - туман. В сухую погоду видимость может ухудшаться дымом, пылью или мглою.
Явления - указаны атмосферные явления, наблюдавшиеся в срок или в последний час перед сроком; фигурными скобками обозначены явления, наблюдавшиеся между сроками (за 1-3 часа до срока); квадратными скобками обозначены град или гололедные отложения с указанием их диаметра в мм.
Облачность - указаны через наклонную черту общая и нижняя облачность в баллах и высота нижней границы облаков в метрах; квадратными скобками обозначены формы облаков: Ci - перистые, Cs - перисто-слоистые, Cc - перисто-кучевые, Ac - высококучевые, As - высокослоистые, Sc - слоисто-кучевые, Ns - слоисто-дождевые, Cu - кучевые, Cb - кучево-дождевые. Подробнее классификацию облаков см. в Атласе облаков (PDF).
T - Температура воздуха - температура, измеренная на высоте 2 м над землей.
Td - Температура точки росы - температура, при понижении до которой содержащийся в воздухе водяной пар достигнет насыщения.
f - Относительная влажность воздуха - влажноcть воздуха, измеренная на высоте 2 м над землей.
Te - Эффективная температура - температура, которую ощущает одетый по сезону человек в тени. Характеристика душности погоды. При расчете учитывается влияние влажности воздуха и скорости ветра на теплоощущения человека.
Tes - Эффективная температура на солнце - температура, которую ощущает человек, с поправкой на солнечный нагрев. Характеристика знойности погоды. Зависит от высоты солнца над горизонтом, облачности и скорости ветра. Ночью, в пасмурную погоду, а также при ветре 12 м/с и более поправка равна нулю.
P - Атмосферное давление - приведенное к уровню моря атмосферное давление.
Po - Атмосферное давление - измеренное на уровне метеостанции атмосферное давление.
Tmin - Минимальная температура - минимум температуры воздуха на высоте 2 м над землей.
Tmax - Максимальная температура - максимум температуры воздуха на высоте 2 м над землей.
R - Количество осадков - Количество выпавших осадков за период времени, мм. При наведении курсора мыши на число - период времени, за который выпало указанное количество осадков.
R24 - Количество осадков - Количество выпавших осадков за 24 часа, мм.
S - Снежный покров - Высота снежного покрова, см. При наведении курсора мыши на число - состояние снежного покрова и степень покрытия местности в баллах.